Location: Newark
(40.0667°N, 18.0500°E)
Time: 00:33:38
(UTC+00:00)

N. Korean satellite - Pass Details

Date: 28 January 2020
Orbit: 456 x 505 km, 97.2° (Epoch: 24 February)

Event Time Altitude Azimuth Distance (km) Brightness Sun altitude
Rises 04:26:47 0° 14° (NNE) 2,551 10.3 -18.0°
Reaches altitude 10° 04:28:51 10° 17° (NNE) 1,675 9.4 -17.6°
Maximum altitude 04:32:26 68° 100° (E) 533 6.9 -17.0°
Drops below altitude 10° 04:36:03 10° 185° (S) 1,687 9.4 -16.3°
Sets 04:38:08 0° 187° (S) 2,572 10.3 -15.9°
